CYTS

Timmins Victor M. Power Airport

Airport
ICAO code
CYTS
Summary
ICAO Region
NAM
ICAO Territory
Location

Timmins, Ontario,

Coordinates
48° 34' 11" N , 81° 22' 36" W
KCC
Airport BS
Bird Strike
Airport CFIT
Altimeter Temperature Error Correction
Airport GND
Aircraft Ground De/Anti Icing
Airport RE
Landing on Contaminated Runways
Metar
Observation
CYTS 062300Z 08006KT 15SM OVC028 M12/M16 A3022 RMK SC8 SLP266
Station
Timmins, Ont.
Date/Time
2022-12-06 23:00:00
Wind direction
80°
Wind speed
06 kts
Lowest cloud amount
overcast
Temperature
-12°C
Dew point
-16°C
Humidity
72%
Weather condition
n/a

Description

Regional airport located 6 miles northwest of Timmins, Ontario, Canada.

Climatology

Humid Continental climate (Köppen climate classification Dfb) - Variable weather patterns and a large seasonal temperature variance. Summers are often warm and humid with frequent thunderstorms and winters can be very cold with frequent snowfall and persistent snow cover.

Runways

Designator Length Width Surface Rops
10/28 1494 46 ASP Yes/Yes
3/21 1829 46 ASP Yes/Yes

Airport map

Aerial View

SKYbrary Partners:

Safety knowledge contributed by: